This demonstration page uses our WeatherBlox Daily Observations layout. Learn more.

Left ArrowRight Arrow

41.12389, -100.76542

Hourly Observations for March 20, 2020

Temp ( °F °C ) Dew Point ( °F °C ) Humidity (%) Winds ( mph kmh ) Pressure ( in mb ) Visibility ( mi km ) Precip ( " mm )
12:53 am 00:53 Cloudy 23 -5 16 -8.9 74 74 NNE 24 39 30.38 1029 10 16 0.00 0.00
1:53 am 01:53 Cloudy 23 -5 16 -8.9 74 74 N 21 33 30.43 1031 10 16 0.00 0.00
2:53 am 02:53 Cloudy 22 -5.6 12 -11.1 66 66 N 21 33 30.52 1033 10 16 0.00 0.00
3:53 am 03:53 Cloudy with Light Snow 21 -6.1 12 -11.1 68 68 N 18 30 30.55 1034 9 14 0.00 0.00
4:45 am 04:45 Partly Cloudy 17 -8.3 9 -12.8 70 70 N 16 26 30.69 1039 10 16 0.00 0.00
4:53 am 04:53 Mostly Clear 17 -8.3 9 -12.8 70 70 N 16 26 30.56 1035 10 16 0.00 0.00
5:53 am 05:53 Clear 15 -9.4 7 -13.9 70 70 NNE 15 24 30.57 1035 10 16 0.00 0.00
6:53 am 06:53 Clear 15 -9.4 8 -13.3 74 74 N 12 19 30.60 1036 10 16 0.00 0.00
7:53 am 07:53 Sunny 14 -10 7 -13.9 73 73 NNE 8 13 30.63 1037 10 16 0.00 0.00
8:53 am 08:53 Sunny 15 -9.4 6 -14.4 67 67 NNE 16 26 30.64 1038 10 16 0.00 0.00
9:53 am 09:53 Sunny 17 -8.3 6 -14.4 62 62 NNE 13 20 30.66 1038 10 16 0.00 0.00
10:53 am 10:53 Sunny 21 -6.1 7 -13.9 54 54 NE 12 19 30.68 1039 10 16 0.00 0.00
11:53 am 11:53 Cloudy 24 -4.4 8 -13.3 50 50 VRB 5 7 30.70 1040 10 16 0.00 0.00
12:53 pm 12:53 Cloudy 26 -3.3 9 -12.8 48 48 E 7 11 30.68 1039 10 16 0.00 0.00
1:53 pm 13:53 Sunny 30 -1.1 10 -12.2 43 43 VRB 5 7 30.65 1038 10 16 0.00 0.00
2:53 pm 14:53 Cloudy 31 -0.6 11 -11.7 43 43 undefined N/A 30.62 1037 10 16 0.00 0.00
3:53 pm 15:53 Cloudy 31 -0.6 12 -11.1 45 45 SSW 7 11 30.58 1036 10 16 0.00 0.00
4:53 pm 16:53 Cloudy 32 0 12 -11.1 43 43 S 5 7 30.55 1035 10 16 0.00 0.00
5:53 pm 17:53 Cloudy 32 0 12 -11.1 43 43 ESE 3 6 30.53 1034 10 16 0.00 0.00
6:53 pm 18:53 Sunny 32 0 14 -10 47 47 ESE 6 9 30.53 1034 10 16 0.00 0.00
7:53 pm 19:53 Cloudy 29 -1.7 13 -10.6 51 51 SSE 8 13 30.54 1034 10 16 0.00 0.00
8:53 pm 20:53 Cloudy 27 -2.8 13 -10.6 55 55 SSE 10 17 30.55 1034 10 16 0.00 0.00
9:53 pm 21:53 Cloudy 26 -3.3 15 -9.4 63 63 SSE 8 13 30.55 1035 10 16 0.00 0.00
10:53 pm 22:53 Partly Cloudy 24 -4.4 14 -10 65 65 SSE 10 17 30.52 1034 10 16 0.00 0.00
11:53 pm 23:53 Clear 22 -5.6 13 -10.6 68 68 SSE 9 15 30.52 1033 10 16 0.00 0.00

Powered by AerisWeather